Location: Aurora Center
(43.5271°N, 98.5894°W)
Time: 01:40:39
(UTC-05:00)

Envisat - Pass Details

Date: 26 June 2024
Orbit: 762 x 764 km, 98.3° (Epoch: 12 July)

Event Time Altitude Azimuth Distance (km) Brightness Sun altitude
Rises 05:09:09 0° 10° (N) 3,235 7.2 -7.4°
Reaches altitude 10° 05:11:28 10° 8° (N) 2,305 6.3 -7.1°
Maximum altitude 05:16:30 68° 287° (WNW) 821 3.1 -6.4°
Drops below altitude 10° 05:21:30 10° 205° (SSW) 2,288 4.9 -5.7°
Enters shadow 05:23:04 - 203° (SSW) 2,909 5.4 -5.5°
